Погода Горно-Алтайск

Погода Горно-Алтайск : погода сейчас, прогноз погоды и архив. Всё, что Вы хотите узнать о погоде Горно-Алтайск!

Хотите узнать прогноз погоды Горно-Алтайск? Тогда Вам сюда: Погода Горно-Алтайск

Поиск расширенной информации на нашем сайте:

Другие новости

Новости СМИ2

Главная страница сайта

Новости сайта

03.07.2017

Напоминаем, что на нашем специализированном сайте Метеоцентр.Азия вы можете получить высокодетализированные автоматические прогнозы погоды по пунктам России, СНГ и мира в авиационном формате (включающие направление и скорость ветра, видимость, явления погоды, количество и форму облачности, нижнюю и верхнюю границу облачности).


Погода Горно-Алтайск - сегодня

Время (UTC), дата Ветер
(°,м/с) 
Видим.   Явления Облачность Т
(°С)
Тd
(°С)
f(%) Тe
(°С)
Pmin
(гПа)
dP
(гПа)
Po
(мм)
O2
(г/м3)
Тmin Tmax R s Состояние
почвы
06 19.04.18 070 (В) 10 км    9/5 1500 м средняя 
[Sc|Ac trans]
+5.1 -4.4 50 +3  1017.1  -3.3  736  292           
09 19.04.18 060 (СВ) 10 км  слаб. ливневой дождь со снегом  9/9 300 м кучево-дожд. 
[Cb calv]
+2.2 +1.9 98 +1  1016.3  -1.1  735  294           
12 19.04.18 030 (СВ) 10 км    9/9 300 м 
+2.3 +1.7 96 1014.2  -2  734  293           
15 19.04.18 340 (С) 10 км    ясно 
+1 +1 100 1014.7  0.3  734  294    +5.4       
18 19.04.18 нст () 10 км    ясно 
+0.6 +0.6 100 +1  1017.6  2.8  736  296           
21 19.04.18 тихо ()   4900 м    ясно 
+0.2 -0.2 97 1020.9  3.1  738  297           
00 20.04.18 тихо ()   4200 м    ясно 
+0 +0 100 1024.1  3.1  741  298           
06 20.04.18 210 (ЮЗ) 10 км  {ливн. осадки}  8/6 600 м кучево-дожд., средняя, верхняя 
[Cb calv|Ac trans|Ci fib]
+7 -0.9 57 +7  1024.5  -0.5  742  291           
09 20.04.18 050 (СВ) 10 км    8/6 1000 м кучево-дожд., средняя 
[Cb calv|Ac trans]
+7.6 -1.3 53 +7  1023.6  -0.8  741  291           
12 20.04.18 030 (СВ) 10 км    ясно 
+7.5 -0.7 56 +7  1023.2  -0.4  741  291           
15 20.04.18 210 (ЮЗ) 9000 м    ясно 
+2 -1.6 77 +3  1023.8  -0.1  741  296    +9.2       
18 20.04.18 270 (З) 10 км    ясно 
-1 -1 100 -2  1023  -1.1  740  299           
21 20.04.18 230 (ЮЗ) 10 км    ясно 
-2.2 -2.2 100 -3  1022.8  -0.4  740  301           
00 21.04.18 250 (З) 10 км    ясно 
-2.9 -2.9 100 -2  1022.6  -0.3  739  301           
03 21.04.18 тихо ()   10 км    8/0 верхняя 
[Ci fib]
+8.4 -0.6 53 +8  1021  0.1  739  289  -4         
06 21.04.18 нст () 10 км    9/0 верхняя 
[Ci fib]
+15.5 -11.8 14 +17  1019.2  -0.9  739  283           
09 21.04.18 320 (СЗ) 10 км    9/0 верхняя 
[Ci fib]
+17.2 -5.9 20 +18  1017.2  -1.7  737  280           
12 21.04.18 050 (СВ) 10 км    ясно 
+15.3 -5.1 24 +15  1016.3  -1.1  737  282           
15 21.04.18 200 (Ю) 10 км    ясно 
+8.2 -5.6 37 +9  1017.2  737  289    +17.9       
18 21.04.18 нст () 10 км    ясно 
+2.5 -3.8 63 +3  1018  0.1  737  294           
21 21.04.18 220 (ЮЗ) 10 км    ясно 
+0 -2.7 82 +1  1017.7  -0.6  736  297           
00 22.04.18 нст () 10 км    ясно 
+1.9 -3.4 68 +3  1017.1  -0.4  736  295           
03 22.04.18 200 (Ю) 10 км    5/0 верхняя 
[Ci fib]
+17.8 -4.1 22 +18  1013.7  -1.3  735  278  +3.5         
06 22.04.18 220 (ЮЗ) 10 км    9/0 средняя, верхняя 
[Ac trans|Ci fib]
+20.7 -3.7 19 +21  1012.4  -0.9  734  275           
09 22.04.18 230 (ЮЗ) 6{11}  10 км    9/5 2000 м средняя 
[Sc|Ac trans]
+22.4 -3.8 17 +22  1012  -0.2  734  274           
Время (UTC), дата Ветер
(°,м/с) 
Видим.   Явления Облачность Т
(°С)
Тd
(°С)
f(%) Тe
(°С)
Pmin
(гПа)
dP
(гПа)
Po
(мм)
O2
(г/м3)
Тmin Tmax R s Состояние
почвы

Для получения пояснительной информации подведите курсор к названию столбца.

ПОГОДА Горно-Алтайск - архив

Всё, что Вы хотите узнать о погоде Горно-Алтайск - удобно и подробно!

Выберите нужную дату (начиная с 1 января 2015* года) и нажмите кнопку "Найти".
Будут отображены архивные сводки погоды по пункту Горно-Алтайск, начиная с указанной даты.


Отображать данные в формате CSV (для использования в таблицах Excel)


Внимание! Наш архив погоды предназначен исключительно для личного некоммерческого использования в познавательных целях. Если Вам необходимы официальные справки о состоянии погоды (для производственных, юридических, коммерческих и т.п. целей), обращайтесь в органы Росгидромета.

*Примечание: данная дата относится к архиву по метеостанциям СССР (Россия, СНГ, Балтия).
Архив по метеостанциям Зарубежной Европы и Азии (кроме Китая) хранится 10 дней, по другим регионам земного шара (Китай, Африка, Америка, Австралия, Океания) - 1 день.

Горно-Алтайск - район местоположения метеостанции


Название, широта, долгота, высота метеостанции:
Горно-Алтайск 52°ш. 85.9°д. 286 м над ур. моря [Российская Федерация]

Дополнительная информация

В oтличие oт бoльшинства пoгoдных сайтoв мы публикуем пoдрoбную метеoинфoрмацию в детальнoм прoфессиoнальнoм фoрмате.

Характеристики температуры и влажнoсти вoздуха измеряются на высoте 2 м в тени вдали oт зданий и деревьев.
Скoрoсть ветра измеряется на высoте 10 м (на урoвне рoста челoвека скoрoсть ветра ниже в 1.5-2 раза). Если метеoстанция нахoдится в гoрoде или в лесу, тo скoрoсть ветра занижена на 2-4 м/с пo сравнению с oткрытым местoм. Скoрoсть ветра над акватoриями крупных рек и oзёр, а также на вершинах хoлмoв на 2-5 м/с выше, чем в oбычных услoвиях.
Атмoсфернoе давление в разных тoчках местнoсти мoжет значительнo oтличаться oт давления на метеoстанции, в зависимoсти oт услoвий рельефа (при пoдъёме на 10 м давление пoнижается примернo на 1 мм рт.ст.).